Home > Weather > Dover > Past weeks

Flag for U.S.A. Weather for the Past 2 Weeks in Dover, Delaware, U.S.A.

Now
35 °F

Light rain. Low clouds.


Feels Like: 29 °F
Forecast: 30 / 38 °F
Wind: 6 mph from Northwest

Location: Dover Air Force Base

Current Time: Feb 9, 2016 at 7:57:56 PM

Latest Report: Feb 9, 2016 at 6:58 PM


Visibility: 7 mi

Pressure: 29.62 "Hg

Humidity: 100%

Dew point: 35 °F

Location of DoverLocation

Historic Weather in Dover — Graph

°F

Dover Temperature Yesterday

Maximum temperature yesterday: 43 °F (at 12:58 PM)
Minimum temperature yesterday: 34 °F (at 8:58 PM)
Average temperature yesterday: 38 °F

High & Low Weather Summary for the Past Weeks

 TemperatureHumidityPressure
High62 °F (Feb 1, 1:58 PM)100% (Jan 28, 4:58 AM)30.47 "Hg (Jan 28, 4:58 AM)
Low24 °F (Jan 28, 6:58 AM)45% (Jan 30, 3:58 PM)29.52 "Hg (Feb 9, 3:03 PM)
Average40 °F80%29.99 "Hg
* Reported Jan 25 6:59 PM — Feb 9 6:58 PM, Dover, Weather by CustomWeather, © 2016

Note: Actual official high and low records may vary slightly from our data, if they occured in-between our weather recording intervals... More about our weather records

Advertising

Dover Weather History for the Previous 24 Hours

 ConditionsComfort  
Time TempWeatherWind HumidityBarometerVisibility
6:58 PM
Tue, Feb 9
35 °FLight rain. Low clouds.6 mph100%29.62 "Hg7 mi
6:04 PM37 °FLight rain. Low clouds.8 mph100%29.58 "Hg10 mi
5:58 PM37 °FLow clouds.7 mph100%29.59 "Hg10 mi
4:58 PM37 °FLight rain. Overcast.6 mph100%29.56 "Hg10 mi
4:03 PM37 °FLight rain. Overcast.6 mph100%29.54 "Hg10 mi
3:58 PM38 °FLight rain. Overcast.8 mph100%29.55 "Hg10 mi
3:03 PM39 °FLight rain. Mostly cloudy.9 mph100%29.52 "Hg10 mi
2:58 PM39 °FLight rain. Mostly cloudy.10 mph100%29.53 "Hg10 mi
1:58 PM39 °FMostly cloudy.9 mph100%29.53 "Hg10 mi
12:58 PM39 °FOvercast.6 mph100%29.54 "Hg10 mi
11:58 AM39 °FLight rain. Low clouds.6 mph100%29.56 "Hg10 mi
11:03 AM37 °FLight rain. Low clouds.7 mph100%29.57 "Hg10 mi
9:58 AM36 °FLight rain. Low clouds.8 mph100%29.58 "Hg10 mi
8:58 AM35 °FLight rain. Low clouds.9 mph100%29.59 "Hg10 mi
7:58 AM35 °FLow clouds.9 mph100%29.59 "Hg10 mi
7:03 AM36 °FLight rain. Low clouds.9 mph100%29.59 "Hg10 mi
6:58 AM35 °FLight rain. Low clouds.12 mph100%29.60 "Hg10 mi
6:03 AM36 °FLight rain. Low clouds.10 mph100%29.59 "Hg10 mi
4:58 AM36 °FLight rain. Mostly cloudy.12 mph100%29.60 "Hg10 mi
3:58 AM35 °FMostly cloudy.10 mph100%29.59 "Hg10 mi
2:58 AM35 °FLight rain. Low clouds.13 mph100%29.61 "Hg10 mi
2:00 AM36 °FLight rain. Low clouds.12 mph100%29.63 "Hg10 mi
12:58 AM36 °FOvercast.10 mph100%29.66 "Hg10 mi
11:58 PM
Mon, Feb 8
35 °FLow clouds.12 mph100%29.69 "Hg10 mi
11:03 PM36 °FLow clouds.12 mph100%29.70 "Hg10 mi
10:58 PM35 °FLight rain. Low clouds.9 mph100%29.72 "Hg10 mi
9:58 PM34 °FLight snow. Low clouds.10 mph100%29.73 "Hg10 mi
8:58 PM34 °FLight rain. Low clouds.10 mph100%29.75 "Hg9 mi
7:58 PM36 °FLight rain. Overcast.10 mph100%29.76 "Hg10 mi
Weather by CustomWeather, © 2016

See weather overviewHow to use our weather pages